TimeCDT,TemperatureF,Dew PointF,Humidity,Sea Level PressureIn,VisibilityMPH,Wind Direction,Wind SpeedMPH,Gust SpeedMPH,PrecipitationIn,Events,Conditions,WindDirDegrees,DateUTC
12:13 AM,48.2,44.6,87,29.92,10.0,NW,11.5,-,N/A,,Overcast,320,2013-03-12 05:13:00
12:28 AM,48.2,44.6,87,29.92,10.0,NNW,11.5,16.1,N/A,,Overcast,330,2013-03-12 05:28:00
12:58 AM,47.1,42.1,83,29.93,10.0,NNW,12.7,-,N/A,,Partly Cloudy,330,2013-03-12 05:58:00
1:58 AM,45.7,40.8,83,29.93,10.0,NW,9.2,-,N/A,,Clear,320,2013-03-12 06:58:00
2:58 AM,44.8,40.1,84,29.93,10.0,NW,12.7,-,N/A,,Clear,320,2013-03-12 07:58:00
3:58 AM,44.1,39.4,84,29.94,10.0,NNW,6.9,-,N/A,,Clear,340,2013-03-12 08:58:00
4:58 AM,43.0,39.4,87,29.97,10.0,NW,9.2,-,N/A,,Clear,320,2013-03-12 09:58:00
5:58 AM,41.9,38.7,88,30.00,10.0,NW,8.1,-,N/A,,Clear,320,2013-03-12 10:58:00
6:58 AM,41.4,35.4,79,30.02,10.0,NNW,10.4,-,N/A,,Clear,340,2013-03-12 11:58:00
7:58 AM,41.0,33.8,76,30.03,10.0,NNW,8.1,-,N/A,,Clear,340,2013-03-12 12:58:00
8:58 AM,43.7,34.0,69,30.05,10.0,NNW,16.1,19.6,N/A,,Clear,340,2013-03-12 13:58:00
9:58 AM,47.5,34.2,60,30.06,10.0,North,9.2,-,N/A,,Clear,350,2013-03-12 14:58:00
10:58 AM,50.9,34.2,53,30.07,10.0,NW,13.8,-,N/A,,Clear,310,2013-03-12 15:58:00
11:58 AM,54.3,32.7,44,30.07,10.0,WNW,10.4,-,N/A,,Clear,300,2013-03-12 16:58:00
12:58 PM,57.4,30.9,37,30.07,10.0,NW,9.2,19.6,N/A,,Clear,320,2013-03-12 17:58:00
1:58 PM,60.4,30.7,33,30.04,10.0,NW,11.5,-,N/A,,Clear,310,2013-03-12 18:58:00
2:58 PM,63.9,30.6,29,30.03,10.0,NW,10.4,19.6,N/A,,Clear,310,2013-03-12 19:58:00
3:06 PM,62.6,32.0,32,30.02,10.0,WNW,12.7,-,N/A,,Clear,290,2013-03-12 20:06:00
3:58 PM,63.9,31.1,29,30.03,10.0,NW,10.4,-,N/A,,Clear,320,2013-03-12 20:58:00
4:58 PM,63.7,31.3,30,30.04,10.0,NW,15.0,19.6,N/A,,Clear,310,2013-03-12 21:58:00
5:58 PM,62.1,31.6,32,30.05,10.0,NW,10.4,-,N/A,,Clear,310,2013-03-12 22:58:00
6:58 PM,57.6,32.5,39,30.07,10.0,NW,6.9,-,N/A,,Clear,310,2013-03-12 23:58:00
7:58 PM,54.3,32.9,44,30.10,10.0,WNW,5.8,-,N/A,,Clear,300,2013-03-13 00:58:00
8:58 PM,52.5,32.5,47,30.12,10.0,NW,5.8,-,N/A,,Clear,310,2013-03-13 01:58:00
9:58 PM,50.7,33.4,52,30.14,10.0,WNW,4.6,-,N/A,,Clear,300,2013-03-13 02:58:00
10:58 PM,49.1,34.3,57,30.15,10.0,WNW,4.6,-,N/A,,Clear,300,2013-03-13 03:58:00
11:54 PM,46.4,33.8,62,30.15,10.0,NW,4.6,-,N/A,,Clear,310,2013-03-13 04:54:00